Regional Weather Roundup
Issued by NWS New Orleans/Baton Rouge, LA

Home | Current Version | Previous Version | Text Only | Print | Product List | Glossary On
Versions: 1 2 3 4 5 6 7 8 9 10 11 12 13 14 15 16 17 18 19 20 21 22 23 24 25 26 27 28 29 30 31 32 33 34 35 36 37 38 39 40 41 42 43 44 45 46 47 48 49 50
504
ASUS44 KLIX 262005
RWRLIX
NEW ORLEANS REGIONAL WEATHER ROUNDUP
NATIONAL WEATHER SERVICE NEW ORLEANS LA
300 PM CDT TUE AUG 26 2014

NOTE: "FAIR" INDICATES FEW OR NO CLOUDS BELOW 12,000 FEET WITH NO
      SIGNIFICANT WEATHER AND/OR OBSTRUCTIONS TO VISIBILITY.
      SKY/WX - SKY CONDITION AND SIGNIFICANT WEATHER.
      TMP - AIR TEMPERATURE.     DP    - DEWPOINT TEMPERATURE.
      RH  - RELATIVE HUMIDITY.   PRES  - PRESSURE.
      HI  - HEAT INDEX.          WCI   - WIND CHILL INDEX.

*  THESE STATIONS ARE NOT NWS OR FAA STATIONS AND ARE NOT UNDER
   NWS QUALITY CONTROL.

LAZ038-040-048-061>063-065>067-069-262100-
SOUTHEAST LOUISIANA

CITY           SKY/WX    TMP DP  RH WIND       PRES   REMARKS
N.O. AUDUBON     N/A     89  73  59 MISG        N/A  HX  96
N.O. INTL ARPT CLOUDY    89  69  51 E9        29.97F
N.O. LAKEFRONT PTSUNNY   87  72  60 E14       29.98F
N.O. DOWNTOWN*   N/A     88  68  51 E8        29.98F
SLIDELL        MOSUNNY   90  66  45 NE7       29.97F
BATON ROUGE    PTSUNNY   89  68  49 NE7       29.98S
BOOTHVILLE     PTSUNNY   85  74  69 E14       29.97F
BELLE CHASSE   CLOUDY    87  70  56 E12       29.97F
BOGALUSA*        N/A     90  62  38 NE8       30.00F
GALLIANO*      NOT AVBL
NEW ROADS*       N/A     88  70  54 E7        29.98F
GONZALES*      MOCLDY    87  73  62 E5        29.97S
HAMMOND*       PTSUNNY   91  61  35 E7        29.99F
HOUMA*         MOSUNNY   84  72  65 E5        29.97F
PORT FOURCHON* MOCLDY    84  75  74 NE16      29.97S

$$

MSZ070-080>082-262100-
SOUTHERN MISSISSIPPI

CITY           SKY/WX    TMP DP  RH WIND       PRES   REMARKS
MCCOMB         MOSUNNY   89  61  38 NE7       30.01F
GULFPORT       MOSUNNY   88  71  57 SE12      29.97F
BILOXI         MOSUNNY   88  72  58 S13       29.98F
PASCAGOULA     MOSUNNY   90  67  46 NE7       29.97F
STENNIS ARPT*  MOSUNNY  N/A N/A N/A E7        29.98F

$$

COASTAL OBSERVATIONS
LAKE AND NEARSHORE STATIONS

STATION/POSITION TIME  TEMP    WIND        PRES    WAVE
                       AIR SEA DIR/SP/G            HT/PER
                 (UTC) (F)     (DEG/KT/KT) (MB)    (FT/S)
PASCAGOULA       2000   88     130/ 11/ 16 1014.6
WAVELAND YACHT   2000   83     150/ 10/ 12 1014.5
GRAND ISLE       2000   84 86   70/ 15/ 18 1015.1
SOUTHWEST PASS   2000   86 88   70/ 17/ 19 1014.5
NEW CANAL        2000   87 85   90/  4/ 10 1015.4
SHELL BEACH      2000   84 82   70/ 15/ 17 1014.8

OFFSHORE STATIONS

STATION/POSITION TIME  TEMP    WIND        PRES    WAVE
                       AIR SEA DIR/SP/G            HT/PER
                 (UTC) (F)     (DEG/KT/KT) (MB)    (FT/S)
64 S DAUPHIN ISL 1851   84 86   60/ 14/ 17 1014.6

$$




USA.gov is the U.S. government's official web portal to all federal, state and local government web resources and services.